Location: Amsterdam
(30.7274°N, 84.4357°W)
Time: 22:47:09
(UTC+00:00)

STRAND 1 - Visible Passes

Search period start: 12 March 2026 00:00
Search period end: 22 March 2026 00:00
Orbit: 762 x 775 km, 98.4° (Epoch: 12 March)

Date Brightness Start Highest point End Pass type
(mag) Time Alt. Az. Time Alt. Az. Time Alt. Az.
12 Mar ? 00:38:45 10° NNW 00:41:59 17° WNW 00:45:12 10° WSW visible
12 Mar ? 10:08:07 10° SE 10:12:38 33° ENE 10:17:10 10° N visible
13 Mar ? 00:01:39 10° N 00:06:21 40° WNW 00:11:02 10° SW visible
13 Mar ? 09:34:23 10° E 09:37:03 14° ENE 09:39:42 10° NE visible
13 Mar ? 11:10:38 10° S 11:15:36 52° W 11:20:35 10° NNW visible
14 Mar ? 10:34:39 10° SSE 10:39:42 64° ENE 10:44:45 10° N visible
15 Mar ? 00:29:36 10° NNW 00:33:19 21° WNW 00:37:03 10° WSW visible
15 Mar ? 09:59:44 10° SE 10:03:58 27° ENE 10:08:12 10° NNE visible
16 Mar ? 09:26:48 10° E 09:28:26 11° ENE 09:30:04 10° NE visible
16 Mar ? 11:01:48 10° S 11:06:52 65° W 11:11:56 10° NNW visible
17 Mar ? 00:59:03 10° NW 01:00:12 11° WNW 01:01:22 10° WNW visible
17 Mar ? 10:26:05 10° SSE 10:31:00 52° ENE 10:35:57 10° N visible
18 Mar ? 00:20:33 10° NNW 00:24:41 26° WNW 00:28:47 10° SW visible
18 Mar ? 09:51:27 10° ESE 09:55:19 22° ENE 09:59:10 10° NNE visible
19 Mar ? 10:53:02 10° S 10:58:08 81° WSW 11:03:14 10° NNW visible
20 Mar ? 00:49:11 10° NW 00:51:35 14° WNW 00:53:59 10° W visible
20 Mar ? 10:17:32 10° SE 10:22:18 42° ENE 10:27:04 10° N visible
21 Mar ? 00:11:34 10° N 00:16:00 31° WNW 00:20:25 10° SW visible
21 Mar ? 09:43:16 10° ESE 09:46:40 18° ENE 09:50:03 10° NNE visible
